This is the latest recevied weather packets stored in our database for station/object LU4EGV-13. If no packets are shown the sender has not sent any weather packets the latest 10 day(s).
| Time | Temp. | Humidity | Pressure | Rain* | Wind** | Luminosity | Snow |
|---|---|---|---|---|---|---|---|
| 1778123559 | 21.67° C | 78% | 998.1 hPa | 0 mm | - | - | - |
| 1778122952 | 23.33° C | 72% | 998.9 hPa | 0 mm | - | - | - |
| 1778122346 | 25.56° C | 75% | 998.2 hPa | 0 mm | - | - | - |
| 1778121742 | 25.56° C | 75% | 997.7 hPa | 0 mm | - | - | - |
| 1778121135 | 25.56° C | 75% | 997.8 hPa | 0 mm | - | - | - |
| 1778120540 | 25.56° C | 75% | 997.7 hPa | 0 mm | - | - | - |
| 1778119922 | 25.56° C | 75% | 997.4 hPa | 0 mm | - | - | - |
| 1778119316 | 25.56° C | 75% | 998.3 hPa | 0 mm | - | - | - |
| 1778118709 | 25.56° C | 75% | 998.3 hPa | 0 mm | - | - | - |
| 1778118103 | 25.56° C | 76% | 998.6 hPa | 0 mm | - | - | - |
| 1778117497 | 25.56° C | 76% | 998.3 hPa | 0 mm | - | - | - |
| 1778116891 | 25.56° C | 77% | 998.5 hPa | 0 mm | - | - | - |
| 1778116286 | 25.56° C | 77% | 998.3 hPa | 0 mm | - | - | - |
| 1778115681 | 25.56° C | 77% | 997.9 hPa | 0 mm | - | - | - |
| 1778115072 | 25.56° C | 78% | 998.1 hPa | 0 mm | - | - | - |
| 1778114466 | 25.56° C | 78% | 998.6 hPa | 0 mm | - | - | - |
| 1778113860 | 25.56° C | 79% | 998.7 hPa | 0 mm | - | - | - |
| 1778113254 | 25° C | 80% | 998.5 hPa | 0 mm | - | - | - |
| 1778112648 | 24.44° C | 82% | 998.3 hPa | 0 mm | - | - | - |
| 1778112041 | 23.89° C | 83% | 998.3 hPa | 0 mm | - | - | - |
| 1778111435 | 23.89° C | 83% | 998.5 hPa | 0 mm | - | - | - |
| 1778110835 | 23.33° C | 84% | 999.1 hPa | 0 mm | - | - | - |
| 1778110229 | 22.78° C | 83% | 998.3 hPa | 0 mm | - | - | - |
| 1778109622 | 22.78° C | 85% | 997.9 hPa | 0 mm | - | - | - |
| 1778109011 | 22.22° C | 85% | 998.2 hPa | 0 mm | - | - | - |
* Rain latest hour (hover to see other rain measurements)
** Current wind speed in m/s (hover to see current wind gust speed)